OM6ACB-6 Weather Reports


Display with metric or nautical units.
time (UTC)temp
F
wind
direction
speed
MPH
gust
MPH
rain 1hr
in
rain 24hr
in
rain mn
in
humidity
%
barometer
mb
20260906094648 67 232 4.0 6.0 0.00 0.00 0.00 23 1029.1
20260906093648 65 214 5.0 10.0 0.00 0.00 0.00 23 1028.8
20260906092647 64 250 4.0 6.0 0.00 0.00 0.00 24 1028.7
20260906091647 65 234 3.0 6.0 0.00 0.00 0.00 23 1029.0
20260906090647 68 177 1.0 3.0 0.00 0.00 0.00 22 1029.0
20260906085647 64 133 1.0 3.0 0.00 0.00 0.00 24 1028.6
20260906084646 63 217 1.0 9.0 0.00 0.00 0.00 24 1028.4
20260906083646 62 265 3.0 9.0 0.00 0.00 0.00 24 1028.3
20260906082646 64 317 2.0 4.0 0.00 0.00 0.00 24 1028.4
20260906081645 64 316 2.0 5.0 0.00 0.00 0.00 24 1028.2
20260906080645 69 84 1.0 3.0 0.00 0.00 0.00 22 1028.6
20260906075645 63 82 0.0 2.0 0.00 0.00 0.00 24 1028.1
20260906074644 63 97 1.0 4.0 0.00 0.00 0.00 24 1028.0
20260906073644 67 278 0.0 2.0 0.00 0.00 0.00 23 1028.3
20260906072644 65 216 0.0 2.0 0.00 0.00 0.00 23 1028.0
20260906071644 61 215 1.0 2.0 0.00 0.00 0.00 24 1027.7
20260906070643 62 219 0.0 3.0 0.00 0.00 0.00 24 1027.7
20260906065643 63 46 0.0 0.0 0.00 0.00 0.00 24 1027.7
20260906064643 65 74 1.0 6.0 0.00 0.00 0.00 23 1027.8
20260906063642 59 99 1.0 5.0 0.00 0.00 0.00 25 1027.2
20260906062642 59 75 1.0 3.0 0.00 0.00 0.00 25 1027.2
20260906061642 59 90 0.0 2.0 0.00 0.00 0.00 25 1027.0
20260906060641 56 90 0.0 1.0 0.00 0.00 0.00 26 1026.7
20260906055641 57 93 1.0 3.0 0.00 0.00 0.00 26 1026.7
20260906054641 54 0 0.0 0.0 0.00 0.00 0.00 26 1026.2
20260906053641 52 0 0.0 0.0 0.00 0.00 0.00 27 1026.0
20260906052640 51 0 0.0 0.0 0.00 0.00 0.00 27 1025.8
20260906051640 50 0 0.0 0.0 0.00 0.00 0.00 27 1025.7
20260906050640 51 0 0.0 0.0 0.00 0.00 0.00 27 1025.7
20260906045639 50 0 0.0 0.0 0.00 0.00 0.00 27 1025.7
20260906044639 50 0 0.0 0.0 0.00 0.00 0.00 28 1025.5
20260906043639 49 0 0.0 0.0 0.00 0.00 0.00 28 1025.4
20260906042639 49 0 0.0 0.0 0.00 0.00 0.00 29 1025.3
20260906041638 49 0 0.0 0.0 0.00 0.00 0.00 28 1025.3
20260906040638 49 0 0.0 0.0 0.00 0.00 0.00 28 1025.2
20260906035638 49 138 0.0 0.0 0.00 0.00 0.00 28 1025.1
20260906034637 49 181 0.0 0.0 0.00 0.00 0.00 28 1024.9
20260906033637 49 181 0.0 1.0 0.00 0.00 0.00 28 1024.8
20260906032637 49 0 0.0 0.0 0.00 0.00 0.00 28 1024.7
20260906031637 49 0 0.0 0.0 0.00 0.00 0.00 28 1024.7
20260906030636 49 0 0.0 0.0 0.00 0.00 0.00 28 1024.5
20260906025636 50 0 0.0 0.0 0.00 0.00 0.00 28 1024.6
20260906024636 50 0 0.0 0.0 0.00 0.00 0.00 28 1024.6
20260906023635 51 158 0.0 2.0 0.00 0.00 0.00 27 1024.7
20260906022635 53 162 0.0 2.0 0.00 0.00 0.00 27 1024.9
20260906021635 52 149 0.0 2.0 0.00 0.00 0.00 27 1024.8
20260906020634 52 0 0.0 0.0 0.00 0.00 0.00 27 1024.8
20260906015634 53 0 0.0 0.0 0.00 0.00 0.00 27 1024.8
20260906014634 53 0 0.0 0.0 0.00 0.00 0.00 27 1024.7
20260906013634 54 1 0.0 0.0 0.00 0.00 0.00 26 1024.7
20260906012633 54 307 0.0 2.0 0.00 0.00 0.00 26 1024.7
20260906011633 55 346 0.0 2.0 0.00 0.00 0.00 26 1024.8
20260906010633 56 270 0.0 1.0 0.00 0.00 0.00 26 1024.8
20260906005632 57 307 2.0 5.0 0.00 0.00 0.00 26 1025.0
20260906004632 57 286 2.0 4.0 0.00 0.00 0.00 25 1024.8
20260906003632 57 288 1.0 5.0 0.00 0.00 0.00 26 1024.5
20260906002632 53 314 0.0 1.0 0.00 0.00 0.00 27 1024.0
20260906001631 53 314 0.0 1.0 0.00 0.00 0.00 27 1023.9
20260906000631 53 210 0.0 2.0 0.00 0.00 0.00 27 1023.9
20260905235631 54 135 0.0 0.0 0.00 0.00 0.00 27 1023.9
20260905234630 56 140 0.0 2.0 0.00 0.00 0.00 26 1023.8
20260905233630 54 0 0.0 0.0 0.00 0.00 0.00 26 1023.9
20260905232630 55 0 0.0 0.0 0.00 0.00 0.00 26 1024.0
20260905231630 56 90 0.0 1.0 0.00 0.00 0.00 26 1024.1
20260905230629 58 174 0.0 2.0 0.00 0.00 0.00 25 1024.3
20260905225629 61 173 1.0 3.0 0.00 0.00 0.00 25 1024.4
20260905224629 59 181 0.0 3.0 0.00 0.00 0.00 25 1024.3
20260905223628 61 194 1.0 4.0 0.00 0.00 0.00 25 1024.5
20260905222628 59 169 1.0 6.0 0.00 0.00 0.00 25 1024.3
20260905221628 61 102 0.0 5.0 0.00 0.00 0.00 24 1024.3
20260905220627 60 334 0.0 1.0 0.00 0.00 0.00 25 1024.3
20260905215627 62 170 2.0 4.0 0.00 0.00 0.00 24 1024.3
20260905214627 62 129 2.0 6.0 0.00 0.00 0.00 24 1024.3
20260905213627 62 146 1.0 5.0 0.00 0.00 0.00 24 1024.2
20260905212626 60 138 1.0 4.0 0.00 0.00 0.00 25 1023.6
20260905211626 58 45 0.0 1.0 0.00 0.00 0.00 25 1023.7
20260905210626 58 222 0.0 1.0 0.00 0.00 0.00 25 1023.6
20260905205625 59 95 1.0 4.0 0.00 0.00 0.00 25 1023.7
20260905204625 58 146 1.0 3.0 0.00 0.00 0.00 25 1023.6
20260905203625 59 194 1.0 3.0 0.00 0.00 0.00 25 1023.6
20260905202625 58 139 0.0 3.0 0.00 0.00 0.00 25 1023.6
20260905201624 58 154 0.0 2.0 0.00 0.00 0.00 25 1023.5
20260905200624 57 135 0.0 0.0 0.00 0.00 0.00 26 1023.3
20260905195624 57 0 0.0 0.0 0.00 0.00 0.00 26 1023.3
20260905194623 57 0 0.0 0.0 0.00 0.00 0.00 26 1023.3
20260905193623 58 0 0.0 0.0 0.00 0.00 0.00 25 1023.2
20260905192623 58 0 0.0 0.0 0.00 0.00 0.00 25 1023.1
20260905191622 57 0 0.0 0.0 0.00 0.00 0.00 26 1023.0
20260905190622 57 0 0.0 0.0 0.00 0.00 0.00 26 1022.8
20260905185622 57 0 0.0 0.0 0.00 0.00 0.00 26 1022.7
20260905184622 57 0 0.0 0.0 0.00 0.00 0.00 26 1022.7
20260905183621 57 0 0.0 0.0 0.00 0.00 0.00 26 1022.7
20260905182621 57 0 0.0 0.0 0.00 0.00 0.00 25 1022.6
20260905181621 58 1 0.0 1.0 0.00 0.00 0.00 25 1022.5
20260905180620 60 135 0.0 1.0 0.00 0.00 0.00 25 1022.5
20260905175620 60 0 0.0 0.0 0.00 0.00 0.00 25 1022.5
20260905174620 60 0 0.0 0.0 0.00 0.00 0.00 25 1022.4
20260905173620 62 197 0.0 4.0 0.00 0.00 0.00 24 1022.3
20260905172619 62 0 0.0 0.0 0.00 0.00 0.00 24 1022.3
20260905171619 66 151 1.0 3.0 0.00 0.00 0.00 23 1022.4
20260905170619 67 175 1.0 4.0 0.00 0.00 0.00 23 1022.5
20260905165618 67 171 2.0 8.0 0.00 0.00 0.00 23 1022.3
20260905164618 67 128 1.0 3.0 0.00 0.00 0.00 23 1022.0
20260905163618 69 210 3.0 8.0 0.00 0.00 0.00 22 1022.2
20260905162618 69 145 1.0 4.0 0.00 0.00 0.00 22 1022.0
20260905161617 70 106 2.0 4.0 0.00 0.00 0.00 22 1022.2
20260905160617 74 83 3.0 9.0 0.00 0.00 0.00 21 1022.3
20260905155617 76 76 1.0 2.0 0.00 0.00 0.00 20 1022.5
20260905154616 75 163 2.0 5.0 0.00 0.00 0.00 21 1022.5
20260905153616 77 152 2.0 4.0 0.00 0.00 0.00 20 1022.6
20260905152616 78 236 1.0 4.0 0.00 0.00 0.00 20 1022.8
20260905151616 77 181 2.0 4.0 0.00 0.00 0.00 20 1022.8
20260905150615 76 229 2.0 4.0 0.00 0.00 0.00 20 1022.7
20260905145615 76 194 2.0 5.0 0.00 0.00 0.00 20 1022.8
20260905144615 76 184 3.0 6.0 0.00 0.00 0.00 20 1022.7
20260905143614 77 145 1.0 4.0 0.00 0.00 0.00 20 1022.9
20260905142614 77 202 3.0 6.0 0.00 0.00 0.00 20 1022.8
20260905141614 74 121 3.0 6.0 0.00 0.00 0.00 21 1022.6
20260905140613 75 87 3.0 8.0 0.00 0.00 0.00 21 1022.7
20260905135613 71 237 2.0 6.0 0.00 0.00 0.00 22 1022.5
20260905134613 75 192 3.0 8.0 0.00 0.00 0.00 21 1022.8
20260905133613 70 228 4.0 8.0 0.00 0.00 0.00 22 1022.4
20260905132615 71 223 4.0 8.0 0.00 0.00 0.00 22 1022.4
20260905131612 71 185 4.0 8.0 0.00 0.00 0.00 22 1022.3
20260905130612 73 66 3.0 7.0 0.00 0.00 0.00 21 1022.6
20260905125611 71 214 4.0 6.0 0.00 0.00 0.00 22 1022.5
20260905124611 75 125 4.0 8.0 0.00 0.00 0.00 21 1022.7
20260905123611 75 103 4.0 13.0 0.00 0.00 0.00 21 1022.6
20260905122610 72 237 3.0 6.0 0.00 0.00 0.00 21 1022.5
20260905121610 76 205 2.0 4.0 0.00 0.00 0.00 20 1022.8
20260905120610 77 159 2.0 5.0 0.00 0.00 0.00 20 1022.9
20260905115610 74 157 4.0 8.0 0.00 0.00 0.00 21 1022.5
20260905114609 73 138 4.0 6.0 0.00 0.00 0.00 21 1022.7
20260905113609 74 173 4.0 8.0 0.00 0.00 0.00 21 1022.7
20260905112609 72 192 5.0 10.0 0.00 0.00 0.00 22 1022.5
20260905111608 73 209 5.0 11.0 0.00 0.00 0.00 21 1022.7
20260905110608 72 121 4.0 10.0 0.00 0.00 0.00 21 1022.8
20260905105608 72 313 2.0 5.0 0.00 0.00 0.00 21 1022.7
20260905104608 73 356 3.0 6.0 0.00 0.00 0.00 21 1022.7
20260905103607 74 317 2.0 5.0 0.00 0.00 0.00 21 1022.8
20260905102607 70 347 2.0 4.0 0.00 0.00 0.00 22 1022.8
20260905101607 71 331 1.0 3.0 0.00 0.00 0.00 22 1022.8
20260905100606 67 292 1.0 3.0 0.00 0.00 0.00 23 1022.6
20260905095606 66 18 0.0 3.0 0.00 0.00 0.00 23 1022.8